SCP
2 2 2 3 3 4 4 4 4 3 3 2 2 3 2 2 2 2 1 1 1 1 2 2 3 3 3 3 2 2 3 3 3 3 2 1 1 1 1 1 1 2 2
2 2 2 2 2 3 3 4 4 3 3 2 2 2 2 2 2 2 1 1 1 1 2 2 3 3 3 3 2 3 3 3 3 3 2 1 1 1 1 1 1 1 1
3 2 2 2 2 2 2 3 4 3 3 2 2 2 2 2 2 1 1 1 1 1 2 2 3 3 3 3 3 3 3 3 2 2 2 1 1 0 0 0 0 1 1
3 2 2 1 1 1 2 3 3 3 2 2 2 2 2 2 2 1 1 1 1 1 2 2 2 3 3 3 3 3 3 3 2 2 2 1 1 0 0 0 0 0 0
2 2 1 1 1 1 2 3 3 3 2 2 2 2 2 2 2 1 1 1 1 1 2 2 2 2 3 3 3 3 3 3 2 2 1 1 1 1 0 0 0 0 0
2 2 1 1 1 2 2 3 3 2 2 2 2 2 2 2 1 1 1 1 1 1 1 2 2 2 3 3 3 3 3 3 2 2 1 1 0 0 0 0 0 0 0
1 1 1 1 1 2 2 2 2 2 2 2 2 2 2 1 1 1 1 1 1 1 1 2 2 2 2 3 3 2 2 2 2 2 1 1 0 0 0 0 0 0 0
1 1 1 1 1 1 1 1 1 1 1 2 2 2 1 1 1 1 1 1 1 1 2 2 3 2 2 2 2 2 1 1 1 1 1 0 0 0 0 0 0 0 0
1 0 0 0 0 0 0 0 0 0 1 1 1 1 1 0 0 0 0 1 1 2 2 2 2 2 2 2 2 2 1 1 1 0 0 0 0 0 0 0 0 0 0
0 0 0 0 0 0 0 0 0 0 0 0 0 0 0 0 0 0 0 0 0 1 1 1 1 1 2 2 1 1 1 0 0 0 0 0 0 0 0 0 0 0 0
0 0 0 0 0 0 0 0 0 0 0 0 0 0 0 0 0 0 0 0 0 0 0 0 0 0 1 1 1 0 0 0 0 0 0 0 0 0 0 0 0 0 0
0 0 0 0 0 0 0 0 0 0 0 0 0 0 0 0 0 0 0 0 0 0 0 0 0 0 0 0 0 0 0 0 0 0 0 0 0 0 0 0 0 0 0
0 0 0 0 0 0 0 0 0 0 0 0 0 0 0 0 0 0 0 0 0 0 0 0 0 0 0 0 0 0 0 0 0 0 0 0 0 0 0 0 0 0 0
0 0 0 0 0 0 0 0 0 0 0 0 0 0 0 0 0 0 0 0 0 0 0 0 0 0 0 0 0 0 0 0 0 0 0 0 0 0 0 0 0 0 0
0 0 0 0 0 0 0 0 0 0 0 0 0 0 0 0 0 0 0 0 0 0 0 0 0 0 0 0 0 0 0 0 0 0 0 0 0 0 0 0 0 0 0
0 0 0 0 0 0 0 0 0 0 0 0 0 0 0 0 0 0 0 0 0 0 0 0 0 0 0 0 0 0 0 0 0 0 0 0 0 0 0 0 0 0 0
0 0 0 0 0 0 0 0 0 0 0 0 0 0 0 0 0 0 0 0 0 0 0 0 0 0 0 0 0 0 0 0 0 0 0 0 0 0 0 0 0 0 0
0 0 0 0 0 0 0 0 0 0 0 0 0 0 0 0 0 0 0 0 0 0 0 0 0 0 0 0 0 0 0 0 0 0 0 0 0 0 0 0 0 0 0
0 0 0 0 0 0 0 0 0 0 0 0 0 0 0 0 0 0 0 0 0 0 0 0 0 0 0 0 0 0 0 0 0 0 0 0 0 0 0 0 0 0 0
0 0 0 0 0 0 0 0 0 0 0 0 0 0 0 0 0 0 0 0 0 0 0 0 0 0 0 0 0 0 0 0 0 0 0 0 0 0 0 0 0 0 0
0 0 0 0 0 0 0 0 0 0 0 0 0 0 0 0 0 0 0 0 0 0 0 0 0 0 0 0 0 0 0 0 0 0 0 0 0 0 0 0 0 0 0
0 0 0 0 0 0 0 0 0 0 0 0 0 0 0 0 0 0 0 0 0 0 0 0 0 0 0 0 0 0 0 0 0 0 0 0 0 0 0 0 0 0 0
0 0 0 0 0 0 0 0 0 0 0 0 0 0 0 0 0 0 0 0 0 0 0 0 0 0 0 0 0 0 0 0 0 0 0 0 0 0 0 0 0 0 0
0 0 0 0 0 0 0 0 0 0 0 0 0 0 0 0 0 0 0 0 0 0 0 0 0 0 0 0 0 0 0 0 0 0 0 0 0 0 0 0 0 0 0
0 0 0 0 0 0 0 0 0 0 0 0 0 0 0 0 0 0 0 0 0 0 0 0 0 0 0 0 0 0 0 0 0 0 0 0 0 0 0 0 0 0 0
0 0 0 0 0 0 0 0 0 0 0 0 0 0 0 0 0 0 0 0 0 0 0 0 0 0 0 0 0 0 0 0 0 0 0 0 0 0 0 0 0 0 0
Wind_Speed
7 8 8 8 8 8 7 6 5 5 3 1 0 0 1 1 1 1 2 2 2 2 2 2 3 3 3 4 5 5 6 5 5 5 4 3 3 3 3 3 4 5 5
6 7 8 9 9 9 9 7 6 5 4 2 1 1 1 1 2 2 3 3 3 3 2 2 3 3 3 4 4 4 4 4 5 5 5 3 3 3 3 3 4 5 5
6 6 8 9 9 9 9 7 7 6 5 3 1 1 1 1 1 2 3 4 4 4 3 3 3 2 2 2 3 3 5 5 5 4 4 4 5 4 3 4 4 5 5
6 6 7 8 9 8 8 8 7 7 6 4 2 1 1 1 2 2 3 4 5 5 5 4 3 2 2 2 2 2 2 4 4 3 2 1 4 5 5 3 4 5 5
6 7 8 8 8 8 8 7 8 8 7 6 4 3 3 3 3 3 5 4 5 6 6 5 4 4 3 3 2 1 0 1 2 2 3 3 3 3 5 5 4 4 4
7 8 8 8 8 8 8 8 9 9 9 8 7 6 6 5 5 5 4 4 4 5 8 7 5 5 4 4 4 3 3 2 2 2 2 2 3 4 4 6 6 5 4
7 7 7 7 8 9 8 8 9 10 9 9 9 8 7 6 6 5 5 5 5 5 7 6 6 6 6 5 5 5 5 5 4 3 2 2 2 2 4 7 6 6 4
8 8 8 7 8 8 8 8 9 9 9 9 9 8 8 6 6 7 6 5 5 6 6 6 7 7 7 7 6 6 6 5 5 5 4 3 3 3 5 6 8 7 4
9 9 8 7 7 7 8 8 9 9 9 9 9 9 8 8 7 7 6 6 6 6 8 8 8 8 9 8 8 7 7 7 7 7 6 5 4 4 4 5 5 6 6
9 8 8 8 7 7 7 8 8 9 9 8 8 7 8 8 8 8 9 9 8 8 8 9 9 10 10 9 9 9 8 9 8 7 8 6 5 5 5 5 3 3 4
9 8 8 8 7 7 7 7 8 8 8 8 8 8 8 8 9 9 9 8 8 9 9 9 10 10 10 10 10 10 9 10 10 9 9 9 7 6 5 5 4 4 5
10 9 9 8 7 7 7 7 7 8 8 8 8 8 8 9 9 9 9 8 8 8 9 9 10 11 11 10 10 11 11 11 11 10 10 9 7 8 6 5 6 5 5
10 10 8 7 7 7 7 7 7 7 7 8 8 8 9 9 9 9 9 9 9 9 9 10 11 11 11 11 10 11 11 11 11 11 10 10 9 9 7 7 7 6 6
10 10 9 8 7 7 7 7 7 7 7 8 8 9 8 9 9 9 9 9 9 9 9 10 10 10 10 10 10 10 11 11 11 11 10 10 9 8 8 7 7 7 7
11 10 9 8 8 7 7 7 7 7 7 8 9 8 8 8 8 9 9 9 9 9 9 10 10 10 9 9 9 9 10 10 11 11 11 11 12 12 9 7 6 6 5
11 11 10 9 9 8 7 8 7 7 7 8 8 8 8 8 8 8 9 9 9 9 10 10 10 11 9 10 11 9 10 10 10 10 9 10 11 11 12 12 12 9 5
13 12 11 10 9 8 7 7 7 7 7 8 7 8 8 8 8 8 9 9 8 9 9 10 10 11 10 10 10 10 9 10 9 9 8 8 8 7 8 8 8 9 9
13 12 11 11 9 8 8 7 7 7 7 7 7 7 7 8 8 8 9 8 8 8 8 9 9 9 9 9 8 6 8 9 9 8 8 8 8 8 6 6 7 7 7
12 11 11 11 10 9 8 8 8 7 8 8 7 8 8 8 8 8 8 7 7 7 7 8 9 9 9 9 8 7 6 7 8 8 9 8 8 8 8 4 6 6 5
12 11 11 11 10 9 8 8 8 8 8 8 8 7 7 7 8 8 7 7 6 7 7 8 8 9 9 9 11 10 4 6 6 7 8 10 8 8 9 4 4 5 4
13 12 12 10 9 9 8 8 8 8 8 8 8 7 7 7 7 7 6 6 6 7 7 7 8 8 8 8 11 12 5 5 5 5 6 7 7 6 6 5 5 4 4
14 13 11 10 9 9 9 9 8 8 7 8 8 7 6 6 7 6 6 6 6 7 6 6 6 6 6 7 7 8 8 8 5 5 6 7 5 4 5 4 4 4 7
13 12 11 11 9 9 8 9 8 7 7 8 7 7 6 5 5 5 6 5 4 4 4 4 5 5 5 5 3 3 3 5 4 5 5 3 1 2 3 3 2 5 2
13 11 12 11 10 9 8 8 8 7 7 8 7 6 6 6 5 3 3 3 4 4 4 4 4 4 4 4 3 3 3 4 2 3 4 4 3 1 1 2 1 2 4
12 11 11 11 11 10 9 9 8 7 7 7 6 6 6 6 5 5 6 5 7 6 5 4 4 3 5 7 7 7 6 6 5 4 1 1 1 1 2 2 2 2 1
12 11 11 11 11 11 10 9 8 7 7 6 6 5 5 5 5 6 6 8 6 5 5 7 6 6 6 3 3 3 4 4 6 6 1 2 2 2 2 2 2 2 3
Wind_Direction
79 62 51 46 45 41 38 39 37 35 35 43 17 121 83 68 61 58 30 0 342 327 297 277 261 252 251 244 233 220 198 180 155 140 127 91 66 71 81 96 98 92 91
83 65 56 49 43 37 31 31 30 31 30 36 23 21 42 63 45 43 43 18 1 344 310 297 280 263 250 241 234 220 200 181 176 166 151 154 128 71 56 85 103 101 92
85 70 59 50 44 36 28 26 24 23 25 30 73 111 116 119 73 39 37 24 12 7 352 326 307 288 271 254 237 221 203 186 185 179 168 170 166 132 84 65 83 92 92
92 76 63 52 44 36 33 31 28 29 26 24 43 75 88 70 42 34 37 30 24 19 11 353 344 334 342 306 270 228 223 196 186 175 173 138 134 148 136 95 78 82 87
95 80 67 57 49 40 39 39 38 38 35 39 48 65 70 67 61 58 55 43 38 32 25 17 10 10 14 7 6 1 277 209 190 166 149 132 112 114 132 137 129 100 78
101 86 76 66 56 48 47 46 47 44 42 46 49 57 70 73 72 62 55 51 46 39 32 28 28 30 33 33 39 44 51 57 102 117 129 143 147 152 136 137 140 120 92
112 96 82 71 61 53 48 50 55 50 48 52 53 53 60 65 64 60 55 51 49 44 35 33 36 39 43 46 51 57 52 54 70 84 95 87 107 127 135 134 131 120 113
110 95 82 72 65 60 56 57 60 59 54 56 57 54 53 59 61 57 60 56 49 47 45 46 49 49 51 56 59 64 62 60 66 68 71 79 85 110 128 132 136 130 123
111 101 92 82 72 65 60 61 65 67 62 61 63 61 60 60 63 65 63 61 58 58 55 56 59 58 56 56 61 63 63 65 63 67 72 76 79 90 98 112 130 136 140
118 110 101 91 83 79 74 69 68 70 70 68 66 67 64 65 64 65 64 63 62 62 65 65 64 64 61 60 63 67 64 70 67 68 71 72 83 90 98 109 106 110 133
128 118 108 101 96 90 85 83 78 75 74 74 75 74 70 69 69 67 65 64 65 65 65 67 68 67 64 63 65 65 65 69 70 71 74 74 76 89 103 110 112 117 121
129 121 116 113 107 98 91 85 81 80 79 78 77 77 76 72 70 69 67 68 66 67 69 70 70 69 66 64 66 67 65 66 68 69 72 75 81 83 85 93 96 98 112
133 126 121 115 108 102 98 94 90 86 85 86 84 80 77 75 73 71 68 69 70 68 69 71 70 69 68 68 67 67 67 66 66 66 68 70 74 78 80 84 93 104 114
137 133 127 122 115 111 105 102 97 96 94 91 87 81 78 76 74 71 69 69 71 73 72 71 71 71 70 70 71 69 68 68 67 66 65 62 64 71 84 89 93 100 112
144 139 132 128 123 118 112 108 105 102 101 97 92 88 85 82 79 75 73 72 72 74 74 75 72 69 65 57 62 77 74 72 71 69 68 65 62 53 49 68 87 100 113
148 142 136 134 131 127 120 116 111 108 104 100 96 93 90 87 83 78 76 74 72 71 73 71 71 67 62 41 35 47 73 69 69 71 74 81 74 75 67 59 55 48 62
150 148 145 140 133 129 127 123 117 113 108 103 99 97 94 92 90 87 82 78 76 75 75 75 75 74 61 44 42 35 65 69 66 65 65 71 73 73 88 98 102 75 56
151 149 145 137 135 134 130 123 119 116 109 105 102 99 97 92 90 86 83 83 82 78 77 76 77 77 59 37 35 26 71 72 68 65 65 69 64 46 36 81 86 86 75
145 143 140 138 139 137 131 126 122 120 117 112 107 104 102 100 97 90 87 85 86 84 82 77 78 78 67 32 13 356 84 80 73 66 58 57 69 32 354 62 85 87 97
140 139 140 141 142 141 140 135 130 122 115 111 109 106 105 102 98 95 93 92 92 90 88 79 74 74 67 38 16 349 70 80 86 89 88 66 46 25 360 29 68 77 69
140 142 142 143 142 144 143 137 128 120 115 115 114 111 108 108 106 103 101 104 100 92 89 89 84 76 67 61 34 13 24 46 63 75 77 71 45 31 9 354 41 37 333
144 144 142 141 143 147 145 134 122 119 120 120 117 114 113 110 109 109 108 107 112 115 108 103 99 93 80 57 51 36 28 1 48 52 58 68 44 38 21 28 33 313 285
145 146 145 142 145 149 144 132 126 126 123 119 117 115 110 103 107 113 118 124 125 115 114 114 103 97 98 109 116 84 47 12 31 54 56 42 326 225 125 93 311 287 304
147 150 149 146 146 146 140 132 130 129 128 123 120 122 118 113 102 101 99 95 95 97 102 99 100 103 102 78 76 108 135 167 139 95 141 194 236 234 104 186 228 5 25
149 151 150 148 145 146 142 137 134 135 130 125 125 126 118 108 104 83 52 47 59 38 29 59 72 72 78 55 19 357 16 12 22 332 239 134 121 107 73 62 47 20 35
151 151 150 149 147 147 142 139 142 140 137 136 137 132 127 124 125 123 111 59 57 68 52 29 19 69 68 64 19 2 341 320 314 298 356 52 33 27 27 12 16 30 26